This is the latest recevied weather packets stored in our database for station/object DB0RV-13. If no packets are shown the sender has not sent any weather packets the latest 10 day(s).
| Time | Temp. | Humidity | Pressure | Rain* | Wind** | Luminosity | Snow |
|---|---|---|---|---|---|---|---|
| 1777647602 | 21.11° C | 23% | 1021.9 hPa | - | - | - | - |
| 1777647302 | 20.56° C | 22% | 1022.1 hPa | - | - | - | - |
| 1777647002 | 20.56° C | 21% | 1022 hPa | - | - | - | - |
| 1777646702 | 21.11° C | 22% | 1022.1 hPa | - | - | - | - |
| 1777646401 | 21.11° C | 21% | 1022.1 hPa | - | - | - | - |
| 1777646102 | 21.11° C | 24% | 1022.1 hPa | - | - | - | - |
| 1777645801 | 21.11° C | 24% | 1022.2 hPa | - | - | - | - |
| 1777645502 | 20.56° C | 21% | 1022.2 hPa | - | - | - | - |
| 1777645201 | 21.11° C | 21% | 1022.3 hPa | - | - | - | - |
| 1777644902 | 20.56° C | 22% | 1022.3 hPa | - | - | - | - |
| 1777644602 | 21.11° C | 22% | 1022.3 hPa | - | - | - | - |
| 1777644303 | 20.56° C | 24% | 1022.3 hPa | - | - | - | - |
| 1777644002 | 21.11° C | 22% | 1022.4 hPa | - | - | - | - |
| 1777643702 | 20.56° C | 23% | 1022.5 hPa | - | - | - | - |
| 1777643402 | 20.56° C | 23% | 1022.6 hPa | - | - | - | - |
| 1777643101 | 20° C | 23% | 1022.6 hPa | - | - | - | - |
| 1777642802 | 20° C | 23% | 1022.6 hPa | - | - | - | - |
| 1777642501 | 20° C | 23% | 1022.7 hPa | - | - | - | - |
| 1777642202 | 20° C | 23% | 1022.8 hPa | - | - | - | - |
| 1777641902 | 20° C | 23% | 1022.6 hPa | - | - | - | - |
| 1777641602 | 20° C | 23% | 1022.7 hPa | - | - | - | - |
| 1777641302 | 20.56° C | 23% | 1022.8 hPa | - | - | - | - |
| 1777641001 | 19.44° C | 24% | 1022.9 hPa | - | - | - | - |
| 1777640702 | 19.44° C | 24% | 1023 hPa | - | - | - | - |
| 1777640402 | 20° C | 23% | 1022.8 hPa | - | - | - | - |
* Rain since midnight (hover to see other rain measurements)
** Current wind speed in m/s (hover to see current wind gust speed)